TimeEDT,TemperatureF,Dew PointF,Humidity,Sea Level PressureIn,VisibilityMPH,Wind Direction,Wind SpeedMPH,Gust SpeedMPH,PrecipitationIn,Events,Conditions,WindDirDegrees,DateUTC
12:54 AM,54.0,48.9,83,29.66,-9999.0,North,-9999.0,-,N/A,,Unknown,0,2013-05-12 04:54:00
1:54 AM,53.1,48.9,86,29.65,-9999.0,North,-9999.0,-,N/A,,Unknown,0,2013-05-12 05:54:00
2:54 AM,52.0,48.9,89,29.64,-9999.0,North,-9999.0,-,N/A,,Unknown,0,2013-05-12 06:54:00
3:54 AM,52.0,48.0,86,29.64,-9999.0,North,-9999.0,-,N/A,,Unknown,0,2013-05-12 07:54:00
4:54 AM,51.1,48.0,89,29.62,-9999.0,North,-9999.0,-,N/A,,Unknown,0,2013-05-12 08:54:00
5:54 AM,51.1,48.9,92,29.63,-9999.0,North,-9999.0,-,N/A,,Unknown,0,2013-05-12 09:54:00
6:54 AM,51.1,48.0,89,29.64,-9999.0,North,-9999.0,-,N/A,,Unknown,0,2013-05-12 10:54:00
7:54 AM,53.1,48.9,86,29.63,-9999.0,North,-9999.0,-,N/A,,Unknown,0,2013-05-12 11:54:00
8:54 AM,55.0,48.9,80,29.61,-9999.0,North,-9999.0,-,N/A,,Unknown,0,2013-05-12 12:54:00
9:54 AM,57.0,46.0,67,29.60,-9999.0,North,-9999.0,-,N/A,,Unknown,0,2013-05-12 13:54:00
10:54 AM,61.0,43.0,52,29.57,-9999.0,North,-9999.0,-,N/A,,Unknown,0,2013-05-12 14:54:00
11:54 AM,62.1,39.9,44,29.56,-9999.0,North,-9999.0,-,N/A,,Unknown,0,2013-05-12 15:54:00
12:54 PM,64.0,37.9,38,29.55,-9999.0,North,-9999.0,-,N/A,,Unknown,0,2013-05-12 16:54:00
1:54 PM,60.1,39.9,47,29.56,-9999.0,North,-9999.0,-,N/A,,Unknown,0,2013-05-12 17:54:00
2:54 PM,57.9,43.0,58,29.58,-9999.0,North,-9999.0,-,N/A,,Unknown,0,2013-05-12 18:54:00
3:54 PM,55.0,39.0,55,29.61,-9999.0,North,-9999.0,-,N/A,,Unknown,0,2013-05-12 19:54:00
4:54 PM,52.0,35.1,53,29.62,-9999.0,North,-9999.0,-,N/A,,Unknown,0,2013-05-12 20:54:00
5:54 PM,52.0,36.0,54,29.63,-9999.0,North,-9999.0,-,N/A,,Unknown,0,2013-05-12 21:54:00
6:54 PM,53.1,35.1,50,29.65,-9999.0,North,-9999.0,-,N/A,,Unknown,0,2013-05-12 22:54:00
7:54 PM,50.0,27.0,41,29.67,-9999.0,North,-9999.0,-,N/A,,Unknown,0,2013-05-12 23:54:00
8:54 PM,48.0,28.9,48,29.70,-9999.0,North,-9999.0,-,N/A,,Unknown,0,2013-05-13 00:54:00
9:54 PM,44.1,30.0,58,29.71,-9999.0,North,-9999.0,-,N/A,,Unknown,0,2013-05-13 01:54:00
10:54 PM,43.0,28.9,58,29.73,-9999.0,North,-9999.0,-,N/A,,Unknown,0,2013-05-13 02:54:00
11:54 PM,44.1,27.0,51,29.73,-9999.0,North,-9999.0,-,N/A,,Unknown,0,2013-05-13 03:54:00